Regional Weather Roundup
Issued by NWS Albany, NY

Home | Current Version | Previous Version | Text Only | Print | Product List | Glossary On
Versions: 1 2 3 4 5 6 7 8 9 10 11 12 13 14 15 16 17 18 19 20 21 22 23 24 25 26 27 28 29 30 31 32 33 34 35 36 37 38 39 40 41 42 43 44 45 46 47
000
ASUS41 KALY 280110
RWRALY

NEW YORK STATE HOURLY WEATHER ROUNDUP
NATIONAL WEATHER SERVICE ALBANY NY
800 PM EST TUE JAN 27 2015

NOTE: "FAIR" INDICATES FEW OR NO CLOUDS BELOW 12,000 FEET WITH NO
SIGNIFICANT WEATHER AND/OR NO OBSTRUCTIONS TO VISIBILITY.

NYZ032-033-038>043-046>054-057>066-NYZ062>081-280200-
EAST


CITY           SKY/WX    TMP DP  RH WIND       PRES   REMARKS
ALBANY         FLURRIES  12   1  61 N13       29.87R WCI  -3
GLENS FALLS    CLOUDY    13   1  59 N18G26    29.88R WCI  -4
POUGHKEEPSIE   CLOUDY    16   5  62 N13       29.79R WCI   2
NEWBURGH       CLOUDY    14  10  85 NE8       29.77R WCI   3
MONTGOMERY     CLOUDY    15   9  76 N8        29.76R WCI   4
WHITE PLAINS   CLOUDY    19   9  65 NW21      29.72R WCI   3
ISLIP          CLOUDY    21  11  65 N24G31    29.70R WCI   4
NEW YORK CITY  CLOUDY    24  15  68 N13       29.75R WCI  12
CENTRAL PARK   CLOUDY    26  14  60 VRB7      29.76R WCI  18
$$

NYZ005>009-017-018-044>046-055-056-280200-
CENTRAL


CITY           SKY/WX    TMP DP  RH WIND       PRES   REMARKS
FULTON         PTCLDY    14  -4  44 N8        30.04S WCI   3
SYRACUSE       MOCLDY    10  -5  50 NW10      30.04R WCI  -4
ROME           PTCLDY    10  -6  48 VRB7      30.00R WCI  -1
ELMIRA         PTCLDY    13   2  61 VRB5      29.99R WCI   5
BINGHAMTON     PTCLDY     8  -1  66 N17G29    29.83R WCI -10
MONTICELLO     CLOUDY    12   3  67 N18G24    29.74R WCI  -5
$$

NYZ026>034-041>043-280200-
NORTH


CITY           SKY/WX    TMP DP  RH WIND       PRES   REMARKS
WATERTOWN      FAIR       4  -6  63 CALM      30.07S
FORT DRUM      NOT AVBL
MASSENA        CLOUDY    12  -2  53 NW8       30.05F WCI   0
SARANAC LAKE   CLOUDY     6  -9  50 VRB3      29.86S
PLATTSBURGH    CLOUDY    11   0  61 N13       29.98F WCI  -4
$$

NYZ001>004-010>016-019>021-280200-
WEST


CITY           SKY/WX    TMP DP  RH WIND       PRES   REMARKS
NIAGARA FALLS  PTCLDY     8   2  76 NW5       30.10R WCI   0
BUFFALO        PTCLDY    14   6  70 W7        30.08S WCI   4
DUNKIRK        CLEAR     10   5  80 W3        30.11S
JAMESTOWN      PTCLDY    10   5  79 N8        30.00S WCI  -1
WELLSVILLE     CLEAR      8   1  73 NW15      29.93S WCI  -9
ROCHESTER      PTCLDY    12   2  64 NW6       30.06F WCI   3
PENN YAN       PTCLDY    11   1  64 N5        30.01R WCI   3
$$

             KEY
       WCI = WIND CHILL INDEX
       VSB = VISIBILITY
       HX  = HEAT INDEX
$$



USA.gov is the U.S. government's official web portal to all federal, state and local government web resources and services.